Regional Weather Roundup
Issued by NWS

Home | Current Version | Previous Version | Graphics & Text | Print | Product List | Glossary On
Versions: 1 2 3 4 5 6 7 8 9 10 11 12 13 14 15 16 17 18 19 20 21 22 23 24 25 26 27 28 29 30 31 32 33 34 35 36 37 38 39 40 41 42 43 44 45 46 47 48 49 50
681
ASUS43 KIND 101259
RWRIN

WEATHER ROUNDUP FOR INDIANA
NATIONAL WEATHER SERVICE INDIANAPOLIS IN
800 AM EST WED FEB 10 2016

NOTE: "FAIR" INDICATES FEW OR NO CLOUDS BELOW 12,000 FEET WITH NO
SIGNIFICANT WEATHER AND/OR OBSTRUCTIONS TO VISIBILITY.

* - STATION DOES NOT REPORT WEATHER SUCH AS PRECIPITATION OR FOG.

+ - STATION NOT QUALITY CONTROLLED BY THE NATIONAL WEATHER SERVICE.
    USE DATA WITH CAUTION...ESPECIALLY DEWPOINT AND RELATIVE
    HUMIDITY OBSERVATIONS.

INZ001>003-010>013-019-020-101400-
NORTHWEST INDIANA

CITY           SKY/WX    TMP DP  RH WIND       PRES   REMARKS
GARY /AIRPORT/ MOCLDY    12   0  57 W14       30.00R WCI  -3
MONTICELLO +   CLEAR      9   1  70 W9        29.99R WCI  -4
RENSSELAER +   CLEAR     12   3  67 W10G16    29.99S WCI  -1

$$

LMZ046-743>745-101400-
SOUTHERN LAKE MICHIGAN

STATION/POSITION TIME  TEMP    WIND        PRES    WAVE
                       AIR SEA DIR/SP/G            HT
                 (UTC) (F)     (DEG/KT/KT) (MB)    (FT)
BURNS HARBOR     1200   17     320/ 17/ 25 1014.9R
MICHIGAN CITY    1200   18     270/ 23/ 25   N/A

$$

INZ004-005-014>016-021>024-101400-
NORTH CENTRAL INDIANA

CITY           SKY/WX    TMP DP  RH WIND       PRES   REMARKS
ELKHART        LGT SNOW  18  14  86 NW8       29.89R WCI   7
GOSHEN         LGT SNOW  18  13  80 W12       29.88R WCI   5
SOUTH BEND     CLOUDY    17  13  84 NW8       29.90R WCI   7

$$

INZ006>009-017-018-025>027-101400-
NORTHEAST INDIANA

CITY           SKY/WX    TMP DP  RH WIND       PRES   REMARKS
ANGOLA *+        N/A     18  16  93 NW3       29.82S
FORT WAYNE     LGT SNOW  18  11  74 W15       29.89S WCI   4

$$

INZ028-029-035-036-043>045-051>053-101400-
WEST CENTRAL INDIANA

CITY           SKY/WX    TMP DP  RH WIND       PRES   REMARKS
GREENCASTLE +  MOCLDY    10   0  61 W8        30.03R WCI  -1
LAFAYETTE      PTCLDY     8   2  76 W12       30.02R WCI  -7
TERRE HAUTE    CLEAR      9   3  77 W7        30.08R WCI  -2

$$

INZ030>032-037>040-046>048-054>057-064-065-101400-
CENTRAL INDIANA

CITY           SKY/WX    TMP DP  RH WIND       PRES   REMARKS
FRANKFORT +    PTCLDY    10   1  64 W12       30.00R WCI  -4
GREENWOOD *+   CLOUDY    14   9  79 W12G18    30.00R WCI   0
INDIANAPOLIS   FLURRIES  12   5  73 W16       30.00R WCI  -5
-EAGLE CREEK   FLURRIES  12   6  77 W13G22    29.99R WCI  -3
KOKOMO *+      CLOUDY    12   7  79 W17       29.95R WCI  -5
MT COMFORT *+  CLOUDY    12   7  79 W12       29.98R WCI  -2
SHELBYVILLE    LGT SNOW  14   7  73 W13       29.98S WCI   0

$$

INZ033-034-041-042-049-050-058-059-101400-
EAST CENTRAL INDIANA

CITY           SKY/WX    TMP DP  RH WIND       PRES   REMARKS
MUNCIE         LGT SNOW  14   8  77 W13       29.93S WCI   0

$$

INZ060-061-067>069-081>083-085>088-101400-
SOUTHWEST INDIANA

CITY           SKY/WX    TMP DP  RH WIND       PRES   REMARKS
EVANSVILLE     PTCLDY    15   5  64 W7        30.15R WCI   5
HUNTINGBURG *+ CLOUDY    14   3  62 NW12      30.11R WCI   0

$$

INZ062-063-066-070>080-084-089>092-101400-
SOUTH CENTRAL AND SOUTHEAST INDIANA

CITY           SKY/WX    TMP DP  RH WIND       PRES   REMARKS
BLOOMINGTON    FLURRIES  11   5  77 W12G18    30.03R WCI  -3
MADISON *+     CLOUDY    16  10  79 W6        30.03S WCI   7
SEYMOUR +      LGT SNOW  18  10  73 W14       30.04S WCI   4

$$





USA.gov is the U.S. government's official web portal to all federal, state and local government web resources and services.